Flag for Germany Weather past 2 weeks in Beckum, North Rhine-Westphalia, Germany

Now
77 °F

Thundershowers. Scattered clouds.


Feels Like: 79 °F
Forecast: 59 / 73 °F
Wind: 9 mph from Southeast

Location: Dortmund / Wickede

Current Time: Jul 5, 2015 at 3:19:30 PM

Latest Report: Jul 5, 2015 at 2:50 PM


Visibility: N/A

Pressure: 29.92 "Hg

Humidity: 57%

Dew point: 61 °F

Location of BeckumLocation

Historic Weather in Beckum — Graph

°F

Beckum temperature yesterday

Maximum temperature yesterday: 95 °F (at 2:50 PM)
Minimum temperature yesterday: 70 °F (at 5:20 AM)
Average temperature yesterday: 87 °F

Past Weeks' High & Low Weather Summary

 TemperatureHumidityPressure
High97 °F (Jul 2, 2:50 PM)94% (Jun 23, 5:50 AM)30.24 "Hg (Jun 23, 5:50 AM)
Low48 °F (Jun 23, 5:20 AM)22% (Jul 2, 3:20 PM)29.68 "Hg (Jun 22, 7:50 PM)
Average69 °F59%30.07 "Hg
* Reported Jun 20 2:20 PM — Jul 5 2:20 PM, Beckum, Weather by CustomWeather, © 2015

Note: Actual official high and low records may vary slightly from our data, if they occured in-between our weather recording intervals... More about our weather records

Advertising

Beckum weather history for previous 24 hours

 ConditionsComfort  
Time TempWeatherWind HumidityBarometerVisibility
2:20 PM
Sun, Jul 5
81 °FThundershowers. Scattered clouds.17 mph45%29.95 "HgN/A
1:50 PM81 °FSunny.12 mph58%29.95 "Hg10 mi
1:20 PM75 °FPassing clouds.7 mph74%29.98 "HgN/A
12:50 PM72 °FSunny.8 mph73%29.98 "Hg10 mi
12:20 PM70 °FThundershowers. Partly sunny.10 mph78%30.01 "HgN/A
11:50 AM66 °FThundershowers. Partly sunny.10 mph88%30.01 "HgN/A
11:20 AM66 °FThundershowers. Scattered clouds.6 mph88%30.07 "HgN/A
10:52 AM68 °FThunderstorms. Scattered clouds.20 mph88%30.09 "Hg4 mi
10:20 AM68 °FThundershowers. Partly sunny.3 mph83%30.07 "Hg4 mi
9:50 AM68 °FThundershowers. Partly sunny.6 mph83%30.07 "Hg6 mi
9:20 AM68 °FThundershowers. Scattered clouds.12 mph83%30.04 "Hg6 mi
8:50 AM68 °FThundershowers. Scattered clouds.3 mph78%30.07 "Hg6 mi
8:20 AM66 °FThunderstorms. Partly sunny.7 mph83%30.07 "Hg4 mi
7:50 AM70 °FThundershowers. Scattered clouds.7 mph69%30.09 "Hg6 mi
7:20 AM72 °FSunny.5 mph65%30.09 "Hg10 mi
6:50 AM70 °FSunny.2 mph64%30.07 "Hg10 mi
6:20 AM68 °FSunny.3 mph64%30.07 "Hg10 mi
5:50 AM68 °FClear.2 mph69%30.09 "Hg10 mi
5:20 AM66 °FClear.2 mph68%30.09 "Hg10 mi
10:50 PM
Sat, Jul 4
79 °FClear.3 mph42%30.09 "Hg10 mi
10:20 PM79 °FPassing clouds.8 mph58%30.09 "HgN/A
9:50 PM81 °FSunny.1 mph51%30.07 "Hg10 mi
9:20 PM84 °FSunny.2 mph43%30.07 "Hg10 mi
8:50 PM84 °FSunny.3 mph43%30.07 "Hg10 mi
8:20 PM88 °FSunny.3 mph33%30.07 "Hg10 mi
7:50 PM91 °FPassing clouds.6 mph30%30.07 "HgN/A
7:20 PM93 °FPassing clouds.7 mph28%30.07 "HgN/A
6:50 PM93 °FSunny.6 mph28%30.07 "Hg10 mi
6:20 PM93 °FSunny.9 mph24%30.07 "Hg10 mi
5:50 PM95 °FSunny.8 mph26%30.07 "Hg10 mi
5:20 PM95 °FSunny.8 mph28%30.07 "Hg10 mi
4:50 PM95 °FSunny.8 mph28%30.07 "Hg10 mi
4:20 PM95 °FSunny.12 mph32%30.07 "Hg10 mi
3:50 PM95 °FSunny.9 mph32%30.07 "Hg10 mi
3:20 PM93 °FSunny.10 mph30%30.07 "Hg10 mi
Weather by CustomWeather, © 2015

See weather overviewHow to use our weather pages